Year,Month,Day,Hour,Minute,Value (Times are PST for windgust in km/hr)
2019,04,06,00,22,6.40
2019,04,06,00,23,4.80
2019,04,06,00,24,8.10
2019,04,06,00,25,6.40
2019,04,06,00,26,6.40
2019,04,06,00,27,6.40
2019,04,06,00,28,8.10
2019,04,06,00,29,6.40
2019,04,06,00,30,4.80
2019,04,06,00,31,6.40
2019,04,06,00,32,4.80
2019,04,06,00,33,4.80
2019,04,06,00,34,4.80
2019,04,06,00,35,3.20
2019,04,06,00,36,3.20
2019,04,06,00,37,4.80
2019,04,06,00,38,4.80
2019,04,06,00,39,4.80
2019,04,06,00,40,6.40
2019,04,06,00,41,6.40
2019,04,06,00,42,4.80
2019,04,06,00,43,4.80
2019,04,06,00,44,8.10
2019,04,06,00,45,6.40
2019,04,06,00,46,8.10
2019,04,06,00,47,6.40
2019,04,06,00,48,4.80
2019,04,06,00,49,4.80
2019,04,06,00,50,6.40
2019,04,06,00,51,6.40
2019,04,06,00,52,4.80
2019,04,06,00,53,4.80
2019,04,06,00,54,6.40
2019,04,06,00,55,4.80
2019,04,06,00,56,6.40
2019,04,06,00,57,8.10
2019,04,06,00,58,4.80
2019,04,06,00,59,8.10
2019,04,06,01,00,4.80
2019,04,06,01,01,6.40
2019,04,06,01,02,6.40
2019,04,06,01,03,6.40
2019,04,06,01,04,6.40
2019,04,06,01,05,4.80
2019,04,06,01,06,4.80
2019,04,06,01,07,8.10
2019,04,06,01,08,6.40
2019,04,06,01,09,4.80
2019,04,06,01,10,4.80
2019,04,06,01,11,4.80
2019,04,06,01,12,4.80
2019,04,06,01,13,4.80
2019,04,06,01,14,4.80
2019,04,06,01,15,4.80
2019,04,06,01,16,6.40
2019,04,06,01,17,6.40
2019,04,06,01,18,6.40
2019,04,06,01,19,6.40
2019,04,06,01,20,4.80
2019,04,06,01,21,6.40
2019,04,06,01,22,6.40
2019,04,06,01,23,6.40
2019,04,06,01,24,4.80
2019,04,06,01,25,6.40
2019,04,06,01,26,6.40
2019,04,06,01,27,4.80
2019,04,06,01,28,6.40
2019,04,06,01,29,4.80
2019,04,06,01,30,6.40
2019,04,06,01,31,4.80
2019,04,06,01,32,6.40
2019,04,06,01,33,4.80
2019,04,06,01,34,6.40
2019,04,06,01,35,6.40
2019,04,06,01,36,6.40
2019,04,06,01,37,4.80
2019,04,06,01,38,6.40
2019,04,06,01,39,6.40
2019,04,06,01,40,6.40
2019,04,06,01,41,4.80
2019,04,06,01,42,4.80
2019,04,06,01,43,4.80
2019,04,06,01,44,1.60
2019,04,06,01,45,3.20
2019,04,06,01,46,3.20
2019,04,06,01,47,4.80
2019,04,06,01,48,8.10
2019,04,06,01,49,8.10
2019,04,06,01,50,8.10
2019,04,06,01,51,8.10
2019,04,06,01,52,8.10
2019,04,06,01,53,8.10
2019,04,06,01,54,6.40
2019,04,06,01,55,6.40
2019,04,06,01,56,6.40
2019,04,06,01,57,9.60
2019,04,06,01,58,9.60
2019,04,06,01,59,12.90
2019,04,06,02,00,8.10
2019,04,06,02,01,8.10
2019,04,06,02,02,6.40
2019,04,06,02,03,6.40
2019,04,06,02,04,6.40
2019,04,06,02,05,8.10
2019,04,06,02,06,8.10
2019,04,06,02,07,8.10
2019,04,06,02,08,8.10
2019,04,06,02,09,8.10
2019,04,06,02,10,8.10
2019,04,06,02,11,6.40
2019,04,06,02,12,9.60
2019,04,06,02,13,9.60
2019,04,06,02,14,8.10
2019,04,06,02,15,8.10
2019,04,06,02,16,9.60
2019,04,06,02,17,9.60
2019,04,06,02,18,6.40
2019,04,06,02,19,8.10
2019,04,06,02,20,6.40
2019,04,06,02,21,9.60
2019,04,06,02,22,4.80
2019,04,06,02,23,8.10
2019,04,06,02,24,8.10
2019,04,06,02,25,6.40
2019,04,06,02,26,6.40
2019,04,06,02,27,9.60
2019,04,06,02,28,6.40
2019,04,06,02,29,6.40
2019,04,06,02,30,6.40
2019,04,06,02,31,9.60
2019,04,06,02,32,9.60
2019,04,06,02,33,9.60
2019,04,06,02,34,9.60
2019,04,06,02,35,12.90
2019,04,06,02,36,14.50
2019,04,06,02,37,8.10
2019,04,06,02,38,12.90
2019,04,06,02,39,9.60
2019,04,06,02,40,8.10
2019,04,06,02,41,9.60
2019,04,06,02,42,11.30
2019,04,06,02,43,6.40
2019,04,06,02,44,8.10
2019,04,06,02,45,8.10
2019,04,06,02,46,9.60
2019,04,06,02,47,9.60
2019,04,06,02,48,12.90
2019,04,06,02,49,14.50
2019,04,06,02,50,12.90
2019,04,06,02,51,12.90
2019,04,06,02,52,12.90
2019,04,06,02,53,14.50
2019,04,06,02,54,12.90
2019,04,06,02,55,12.90
2019,04,06,02,56,12.90
2019,04,06,02,57,9.60
2019,04,06,02,58,9.60
2019,04,06,02,59,11.30
2019,04,06,03,00,9.60
2019,04,06,03,01,11.30
2019,04,06,03,02,8.10
2019,04,06,03,03,6.40
2019,04,06,03,04,6.40
2019,04,06,03,05,6.40
2019,04,06,03,06,12.90
2019,04,06,03,07,12.90
2019,04,06,03,08,6.40
2019,04,06,03,09,11.30
2019,04,06,03,10,11.30
2019,04,06,03,11,6.40
2019,04,06,03,12,6.40
2019,04,06,03,13,6.40
2019,04,06,03,14,9.60
2019,04,06,03,15,8.10
2019,04,06,03,16,8.10
2019,04,06,03,17,8.10
2019,04,06,03,18,9.60
2019,04,06,03,19,9.60
2019,04,06,03,20,8.10
2019,04,06,03,21,8.10
2019,04,06,03,22,6.40
2019,04,06,03,23,4.80
2019,04,06,03,24,6.40
2019,04,06,03,25,9.60
2019,04,06,03,26,9.60
2019,04,06,03,27,14.50
2019,04,06,03,28,12.90
2019,04,06,03,29,9.60
2019,04,06,03,30,9.60
2019,04,06,03,31,9.60
2019,04,06,03,32,12.90
2019,04,06,03,33,12.90
2019,04,06,03,34,9.60
2019,04,06,03,35,12.90
2019,04,06,03,36,9.60
2019,04,06,03,37,9.60
2019,04,06,03,38,9.60
2019,04,06,03,39,9.60
2019,04,06,03,40,6.40
2019,04,06,03,41,12.90
2019,04,06,03,42,9.60
2019,04,06,03,43,9.60
2019,04,06,03,44,9.60
2019,04,06,03,45,8.10
2019,04,06,03,46,9.60
2019,04,06,03,47,8.10
2019,04,06,03,48,9.60
2019,04,06,03,49,9.60
2019,04,06,03,50,12.90
2019,04,06,03,51,9.60
2019,04,06,03,52,9.60
2019,04,06,03,53,9.60
2019,04,06,03,54,8.10
2019,04,06,03,55,12.90
2019,04,06,03,56,9.60
2019,04,06,03,57,9.60
2019,04,06,03,58,8.10
2019,04,06,03,59,12.90
2019,04,06,04,00,12.90
2019,04,06,04,01,14.50
2019,04,06,04,02,9.60
2019,04,06,04,03,12.90
2019,04,06,04,04,12.90
2019,04,06,04,05,12.90
2019,04,06,04,06,17.70
2019,04,06,04,07,16.10
2019,04,06,04,08,12.90
2019,04,06,04,09,12.90
2019,04,06,04,10,9.60
2019,04,06,04,11,9.60
2019,04,06,04,12,8.10
2019,04,06,04,13,14.50
2019,04,06,04,14,9.60
2019,04,06,04,15,12.90
2019,04,06,04,16,14.50
2019,04,06,04,17,9.60
2019,04,06,04,18,12.90
2019,04,06,04,19,12.90
2019,04,06,04,20,12.90
2019,04,06,04,21,8.10
2019,04,06,04,22,8.10
2019,04,06,04,23,12.90
2019,04,06,04,24,9.60
2019,04,06,04,25,9.60
2019,04,06,04,26,4.80
2019,04,06,04,27,6.40
2019,04,06,04,28,4.80
2019,04,06,04,29,4.80
2019,04,06,04,30,3.20
2019,04,06,04,31,6.40
2019,04,06,04,32,6.40
2019,04,06,04,33,8.10
2019,04,06,04,34,6.40
2019,04,06,04,35,4.80
2019,04,06,04,36,6.40
2019,04,06,04,37,6.40
2019,04,06,04,38,8.10
2019,04,06,04,39,6.40
2019,04,06,04,40,8.10
2019,04,06,04,41,4.80
2019,04,06,04,42,6.40
2019,04,06,04,43,4.80
2019,04,06,04,44,4.80
2019,04,06,04,45,6.40
2019,04,06,04,46,6.40
2019,04,06,04,47,6.40
2019,04,06,04,48,6.40
2019,04,06,04,49,4.80
2019,04,06,04,50,6.40
2019,04,06,04,51,6.40
2019,04,06,04,52,4.80
2019,04,06,04,53,6.40
2019,04,06,04,54,6.40
2019,04,06,04,55,4.80
2019,04,06,04,56,3.20
2019,04,06,04,57,4.80
2019,04,06,04,58,6.40
2019,04,06,04,59,9.60
2019,04,06,05,00,6.40
2019,04,06,05,01,6.40
2019,04,06,05,02,8.10
2019,04,06,05,03,4.80
2019,04,06,05,04,4.80
2019,04,06,05,05,6.40
2019,04,06,05,06,4.80
2019,04,06,05,07,6.40
2019,04,06,05,08,6.40
2019,04,06,05,09,4.80
2019,04,06,05,10,4.80
2019,04,06,05,11,4.80
2019,04,06,05,12,3.20
2019,04,06,05,13,4.80
2019,04,06,05,14,4.80
2019,04,06,05,15,6.40
2019,04,06,05,16,6.40
2019,04,06,05,17,6.40
2019,04,06,05,18,4.80
2019,04,06,05,19,3.20
2019,04,06,05,20,4.80
2019,04,06,05,21,4.80
2019,04,06,05,22,6.40
2019,04,06,05,23,14.50
2019,04,06,05,24,8.10
2019,04,06,05,25,4.80
2019,04,06,05,26,3.20
2019,04,06,05,27,11.30
2019,04,06,05,28,6.40
2019,04,06,05,29,14.50
2019,04,06,05,30,12.90
2019,04,06,05,31,14.50
2019,04,06,05,32,11.30
2019,04,06,05,33,12.90
2019,04,06,05,34,12.90
2019,04,06,05,35,11.30
2019,04,06,05,36,11.30
2019,04,06,05,37,6.40
2019,04,06,05,38,12.90
2019,04,06,05,39,12.90
2019,04,06,05,40,14.50
2019,04,06,05,41,12.90
2019,04,06,05,42,9.60
2019,04,06,05,43,6.40
2019,04,06,05,44,12.90
2019,04,06,05,45,4.80
2019,04,06,05,46,6.40
2019,04,06,05,47,3.20
2019,04,06,05,48,1.60
2019,04,06,05,49,4.80
2019,04,06,05,50,8.10
2019,04,06,05,51,12.90
2019,04,06,05,52,11.30
2019,04,06,05,53,12.90
2019,04,06,05,54,9.60
2019,04,06,05,55,14.50
2019,04,06,05,56,17.70
2019,04,06,05,57,17.70
2019,04,06,05,58,22.50
2019,04,06,05,59,17.70
2019,04,06,06,00,20.90
2019,04,06,06,01,20.90
2019,04,06,06,02,14.50
2019,04,06,06,03,16.10
2019,04,06,06,04,19.30
2019,04,06,06,05,24.20
2019,04,06,06,06,19.30
2019,04,06,06,07,17.70
2019,04,06,06,08,29.00
2019,04,06,06,09,19.30
2019,04,06,06,10,19.30
2019,04,06,06,11,27.40
2019,04,06,06,12,22.50
2019,04,06,06,13,22.50
2019,04,06,06,14,27.40
2019,04,06,06,15,25.70
2019,04,06,06,16,25.70
2019,04,06,06,17,29.00
2019,04,06,06,18,25.70
2019,04,06,06,19,29.00
2019,04,06,06,20,24.20
2019,04,06,06,21,25.70
2019,04,06,06,22,25.70
2019,04,06,06,23,30.60
2019,04,06,06,24,37.00
2019,04,06,06,25,24.20
2019,04,06,06,26,32.20
2019,04,06,06,27,35.40
2019,04,06,06,28,25.70
2019,04,06,06,29,43.50
2019,04,06,06,30,29.00
2019,04,06,06,31,20.90
2019,04,06,06,32,22.50
2019,04,06,06,33,37.00
2019,04,06,06,34,45.10
2019,04,06,06,35,35.40
2019,04,06,06,36,38.60
2019,04,06,06,37,35.40
2019,04,06,06,38,37.00
2019,04,06,06,39,33.80
2019,04,06,06,40,32.20
2019,04,06,06,41,32.20
2019,04,06,06,42,30.60
2019,04,06,06,43,32.20
2019,04,06,06,44,30.60
2019,04,06,06,45,25.70
2019,04,06,06,46,29.00
2019,04,06,06,47,35.40
2019,04,06,06,48,33.80
2019,04,06,06,49,29.00
2019,04,06,06,50,32.20
2019,04,06,06,51,30.60
2019,04,06,06,52,29.00
2019,04,06,06,53,35.40
2019,04,06,06,54,27.40
2019,04,06,06,55,29.00
2019,04,06,06,56,25.70
2019,04,06,06,57,35.40
2019,04,06,06,58,40.20
2019,04,06,06,59,37.00
2019,04,06,07,00,20.90
2019,04,06,07,01,30.60
2019,04,06,07,02,35.40
2019,04,06,07,03,30.60
2019,04,06,07,04,35.40
2019,04,06,07,05,25.70
2019,04,06,07,06,41.80
2019,04,06,07,07,30.60
2019,04,06,07,08,35.40
2019,04,06,07,09,35.40
2019,04,06,07,10,35.40
2019,04,06,07,11,43.50
2019,04,06,07,12,38.60
2019,04,06,07,13,32.20
2019,04,06,07,14,30.60
2019,04,06,07,15,32.20
2019,04,06,07,16,40.20
2019,04,06,07,17,33.80
2019,04,06,07,18,35.40
2019,04,06,07,19,37.00
2019,04,06,07,20,48.30
2019,04,06,07,21,43.50
2019,04,06,07,22,35.40
2019,04,06,07,23,38.60
2019,04,06,07,24,33.80
2019,04,06,07,25,38.60
2019,04,06,07,26,45.10
2019,04,06,07,27,43.50
2019,04,06,07,28,48.30
2019,04,06,07,29,37.00
2019,04,06,07,30,38.60
2019,04,06,07,31,49.90
2019,04,06,07,32,38.60
2019,04,06,07,33,37.00
2019,04,06,07,34,41.80
2019,04,06,07,35,46.70
2019,04,06,07,36,32.20
2019,04,06,07,37,43.50
2019,04,06,07,38,29.00
2019,04,06,07,39,29.00
2019,04,06,07,40,35.40
2019,04,06,07,41,33.80
2019,04,06,07,42,48.30
2019,04,06,07,43,40.20
2019,04,06,07,44,45.10
2019,04,06,07,45,33.80
2019,04,06,07,46,37.00
2019,04,06,07,47,53.10
2019,04,06,07,48,41.80
2019,04,06,07,49,45.10
2019,04,06,07,50,41.80
2019,04,06,07,51,51.50
2019,04,06,07,52,38.60
2019,04,06,07,53,37.00
2019,04,06,07,54,32.20
2019,04,06,07,55,40.20
2019,04,06,07,56,38.60
2019,04,06,07,57,45.10
2019,04,06,07,58,45.10
2019,04,06,07,59,41.80
2019,04,06,08,00,48.30
2019,04,06,08,01,53.10
2019,04,06,08,02,30.60
2019,04,06,08,03,38.60
2019,04,06,08,04,59.50
2019,04,06,08,05,61.20
2019,04,06,08,06,56.30
2019,04,06,08,07,51.50
2019,04,06,08,08,51.50
2019,04,06,08,09,35.40
2019,04,06,08,10,57.90
2019,04,06,08,11,59.50
2019,04,06,08,12,59.50
2019,04,06,08,13,46.70
2019,04,06,08,14,67.60
2019,04,06,08,15,51.50
2019,04,06,08,16,46.70
2019,04,06,08,17,41.80
2019,04,06,08,18,45.10
2019,04,06,08,19,37.00
2019,04,06,08,20,53.10
2019,04,06,08,21,48.30
2019,04,06,08,22,37.00
2019,04,06,08,23,48.30
2019,04,06,08,24,53.10
2019,04,06,08,25,49.90
2019,04,06,08,26,49.90
2019,04,06,08,27,61.20
2019,04,06,08,28,56.30
2019,04,06,08,29,49.90
2019,04,06,08,30,56.30
2019,04,06,08,31,66.00
2019,04,06,08,32,66.00
2019,04,06,08,33,57.90
2019,04,06,08,34,51.50
2019,04,06,08,35,75.60
2019,04,06,08,36,61.20
2019,04,06,08,37,61.20
2019,04,06,08,38,48.30
2019,04,06,08,39,48.30
2019,04,06,08,40,54.70
2019,04,06,08,41,61.20
2019,04,06,08,42,67.60
2019,04,06,08,43,56.30
2019,04,06,08,44,70.80
2019,04,06,08,45,56.30
2019,04,06,08,46,56.30
2019,04,06,08,47,62.70
2019,04,06,08,48,53.10
2019,04,06,08,49,61.20
2019,04,06,08,50,66.00
2019,04,06,08,51,56.30
2019,04,06,08,52,66.00
2019,04,06,08,53,53.10
2019,04,06,08,54,82.10
2019,04,06,08,55,49.90
2019,04,06,08,56,61.20
2019,04,06,08,57,69.20
2019,04,06,08,58,53.10
2019,04,06,08,59,61.20
2019,04,06,09,00,46.70
2019,04,06,09,01,51.50
2019,04,06,09,02,56.30
2019,04,06,09,03,57.90
2019,04,06,09,04,48.30
2019,04,06,09,05,61.20
2019,04,06,09,06,59.50
2019,04,06,09,07,54.70
2019,04,06,09,08,46.70
2019,04,06,09,09,74.00
2019,04,06,09,10,70.80
2019,04,06,09,11,51.50
2019,04,06,09,12,54.70
2019,04,06,09,13,62.70
2019,04,06,09,14,49.90
2019,04,06,09,15,74.00
2019,04,06,09,16,61.20
2019,04,06,09,17,64.40
2019,04,06,09,18,53.10
2019,04,06,09,19,54.70
2019,04,06,09,20,61.20
2019,04,06,09,21,59.50
2019,04,06,09,22,66.00
2019,04,06,09,23,45.10
2019,04,06,09,24,48.30
2019,04,06,09,25,56.30
2019,04,06,09,26,59.50
2019,04,06,09,27,61.20
2019,04,06,09,28,41.80
2019,04,06,09,29,59.50
2019,04,06,09,30,48.30
2019,04,06,09,31,51.50
2019,04,06,09,32,43.50
2019,04,06,09,33,54.70
2019,04,06,09,34,59.50
2019,04,06,09,35,66.00
2019,04,06,09,36,54.70
2019,04,06,09,37,53.10
2019,04,06,09,38,53.10
2019,04,06,09,39,45.10
2019,04,06,09,40,43.50
2019,04,06,09,41,51.50
2019,04,06,09,42,57.90
2019,04,06,09,43,49.90
2019,04,06,09,44,51.50
2019,04,06,09,45,48.30
2019,04,06,09,46,48.30
2019,04,06,09,47,53.10
2019,04,06,09,48,40.20
2019,04,06,09,49,38.60
2019,04,06,09,50,51.50
2019,04,06,09,51,59.50
2019,04,06,09,52,43.50
2019,04,06,09,53,51.50
2019,04,06,09,54,64.40
2019,04,06,09,55,51.50
2019,04,06,09,56,48.30
2019,04,06,09,57,49.90
2019,04,06,09,58,62.70
2019,04,06,09,59,56.30
2019,04,06,10,00,49.90
2019,04,06,10,01,51.50
2019,04,06,10,02,53.10
2019,04,06,10,03,53.10
2019,04,06,10,04,75.60
2019,04,06,10,05,70.80
2019,04,06,10,06,57.90
2019,04,06,10,07,57.90
2019,04,06,10,08,49.90
2019,04,06,10,09,38.60
2019,04,06,10,10,49.90
2019,04,06,10,11,43.50
2019,04,06,10,12,53.10
2019,04,06,10,13,56.30
2019,04,06,10,14,45.10
2019,04,06,10,15,40.20
2019,04,06,10,16,61.20
2019,04,06,10,17,61.20
2019,04,06,10,18,61.20
2019,04,06,10,19,35.40
2019,04,06,10,20,30.60
2019,04,06,10,21,45.10
2019,04,06,10,22,33.80
2019,04,06,10,23,51.50
2019,04,06,10,24,48.30
2019,04,06,10,25,45.10
2019,04,06,10,26,32.20
2019,04,06,10,27,53.10
2019,04,06,10,28,48.30
2019,04,06,10,29,46.70
2019,04,06,10,30,53.10
2019,04,06,10,31,40.20
2019,04,06,10,32,43.50
2019,04,06,10,33,46.70
2019,04,06,10,34,45.10
2019,04,06,10,35,54.70
2019,04,06,10,36,53.10
2019,04,06,10,37,45.10
2019,04,06,10,38,35.40
2019,04,06,10,39,41.80
2019,04,06,10,40,37.00
2019,04,06,10,41,35.40
2019,04,06,10,42,48.30
2019,04,06,10,43,41.80
2019,04,06,10,44,40.20
2019,04,06,10,45,38.60
2019,04,06,10,46,53.10
2019,04,06,10,47,40.20
2019,04,06,10,48,40.20
2019,04,06,10,49,35.40
2019,04,06,10,50,27.40
2019,04,06,10,51,51.50
2019,04,06,10,52,45.10
2019,04,06,10,53,38.60
2019,04,06,10,54,43.50
2019,04,06,10,55,45.10
2019,04,06,10,56,40.20
2019,04,06,10,57,37.00
2019,04,06,10,58,53.10
2019,04,06,10,59,38.60
2019,04,06,11,00,41.80
2019,04,06,11,01,35.40
2019,04,06,11,02,45.10
2019,04,06,11,03,43.50
2019,04,06,11,04,43.50
2019,04,06,11,05,40.20
2019,04,06,11,06,35.40
2019,04,06,11,07,45.10
2019,04,06,11,08,35.40
2019,04,06,11,09,37.00
2019,04,06,11,10,32.20
2019,04,06,11,11,30.60
2019,04,06,11,12,30.60
2019,04,06,11,13,30.60
2019,04,06,11,14,29.00
2019,04,06,11,15,38.60
2019,04,06,11,16,29.00
2019,04,06,11,17,29.00
2019,04,06,11,18,27.40
2019,04,06,11,19,22.50
2019,04,06,11,20,17.70
2019,04,06,11,21,14.50
2019,04,06,11,22,14.50
2019,04,06,11,23,20.90
2019,04,06,11,24,14.50
2019,04,06,11,25,14.50
2019,04,06,11,26,19.30
2019,04,06,11,27,12.90
2019,04,06,11,28,19.30
2019,04,06,11,29,16.10
2019,04,06,11,30,12.90
2019,04,06,11,31,16.10
2019,04,06,11,32,22.50
2019,04,06,11,33,14.50
2019,04,06,11,34,12.90
2019,04,06,11,35,11.30
2019,04,06,11,36,6.40
2019,04,06,11,37,9.60
2019,04,06,11,38,4.80
2019,04,06,11,39,11.30
2019,04,06,11,40,12.90
2019,04,06,11,41,12.90
2019,04,06,11,42,16.10
2019,04,06,11,43,16.10
2019,04,06,11,44,19.30
2019,04,06,11,45,12.90
2019,04,06,11,46,12.90
2019,04,06,11,47,9.60
2019,04,06,11,48,1.60
2019,04,06,11,49,1.60
2019,04,06,11,50,9.60
2019,04,06,11,51,6.40
2019,04,06,11,52,6.40
2019,04,06,11,53,12.90
2019,04,06,11,54,17.70
2019,04,06,11,55,11.30
2019,04,06,11,56,4.80
2019,04,06,11,57,14.50
2019,04,06,11,58,16.10
2019,04,06,11,59,4.80
2019,04,06,12,00,9.60
2019,04,06,12,01,12.90
2019,04,06,12,02,12.90
2019,04,06,12,03,14.50
2019,04,06,12,04,8.10
2019,04,06,12,05,8.10
2019,04,06,12,06,12.90
2019,04,06,12,07,11.30
2019,04,06,12,08,17.70
2019,04,06,12,09,9.60
2019,04,06,12,10,8.10
2019,04,06,12,11,14.50
2019,04,06,12,12,12.90
2019,04,06,12,13,8.10
2019,04,06,12,14,11.30
2019,04,06,12,15,11.30
2019,04,06,12,16,8.10
2019,04,06,12,17,9.60
2019,04,06,12,18,14.50
2019,04,06,12,19,9.60
2019,04,06,12,20,6.40
2019,04,06,12,21,9.60
2019,04,06,12,22,6.40
2019,04,06,12,23,8.10
2019,04,06,12,24,9.60
2019,04,06,12,25,6.40
2019,04,06,12,26,6.40
2019,04,06,12,27,9.60
2019,04,06,12,28,9.60
2019,04,06,12,29,4.80
2019,04,06,12,30,9.60
2019,04,06,12,31,12.90
2019,04,06,12,32,11.30
2019,04,06,12,33,8.10
2019,04,06,12,34,11.30
2019,04,06,12,35,9.60
2019,04,06,12,36,4.80
2019,04,06,12,37,11.30
2019,04,06,12,38,4.80
2019,04,06,12,39,11.30
2019,04,06,12,40,9.60
2019,04,06,12,41,11.30
2019,04,06,12,42,11.30
2019,04,06,12,43,12.90
2019,04,06,12,44,11.30
2019,04,06,12,45,4.80
2019,04,06,12,46,12.90
2019,04,06,12,47,8.10
2019,04,06,12,48,6.40
2019,04,06,12,49,8.10
2019,04,06,12,50,9.60
2019,04,06,12,51,6.40
2019,04,06,12,52,6.40
2019,04,06,12,53,4.80
2019,04,06,12,54,3.20
2019,04,06,12,55,3.20
2019,04,06,12,56,3.20
2019,04,06,12,57,6.40
2019,04,06,12,58,3.20
2019,04,06,12,59,4.80
2019,04,06,13,00,11.30
2019,04,06,13,01,4.80
2019,04,06,13,02,6.40
2019,04,06,13,03,14.50
2019,04,06,13,04,16.10
2019,04,06,13,05,14.50
2019,04,06,13,06,12.90
2019,04,06,13,07,9.60
2019,04,06,13,08,11.30
2019,04,06,13,09,9.60
2019,04,06,13,10,11.30
2019,04,06,13,11,17.70
2019,04,06,13,12,14.50
2019,04,06,13,13,9.60
2019,04,06,13,14,12.90
2019,04,06,13,15,12.90
2019,04,06,13,16,16.10
2019,04,06,13,17,8.10
2019,04,06,13,18,11.30
2019,04,06,13,19,16.10
2019,04,06,13,20,11.30
2019,04,06,13,21,14.50
2019,04,06,13,22,14.50
2019,04,06,13,23,14.50
2019,04,06,13,24,6.40
2019,04,06,13,25,4.80
2019,04,06,13,26,4.80
2019,04,06,13,27,19.30
2019,04,06,13,28,11.30
2019,04,06,13,29,11.30
2019,04,06,13,30,9.60
2019,04,06,13,31,9.60
2019,04,06,13,32,8.10
2019,04,06,13,33,19.30
2019,04,06,13,34,14.50
2019,04,06,13,35,19.30
2019,04,06,13,36,19.30
2019,04,06,13,37,6.40
2019,04,06,13,38,12.90
2019,04,06,13,39,12.90
2019,04,06,13,40,4.80
2019,04,06,13,41,9.60
2019,04,06,13,42,8.10
2019,04,06,13,43,14.50
2019,04,06,13,44,6.40
2019,04,06,13,45,8.10
2019,04,06,13,46,9.60
2019,04,06,13,47,12.90
2019,04,06,13,48,11.30
2019,04,06,13,49,3.20
2019,04,06,13,50,8.10
2019,04,06,13,51,4.80
2019,04,06,13,52,11.30
2019,04,06,13,53,12.90
2019,04,06,13,54,14.50
2019,04,06,13,55,17.70
2019,04,06,13,56,14.50
2019,04,06,13,57,14.50
2019,04,06,13,58,9.60
2019,04,06,13,59,6.40
2019,04,06,14,00,12.90
2019,04,06,14,01,12.90
2019,04,06,14,02,16.10
2019,04,06,14,03,11.30
2019,04,06,14,04,9.60
2019,04,06,14,05,16.10
2019,04,06,14,06,14.50
2019,04,06,14,07,16.10
2019,04,06,14,08,16.10
2019,04,06,14,09,24.20
2019,04,06,14,10,20.90
2019,04,06,14,11,16.10
2019,04,06,14,12,14.50
2019,04,06,14,13,3.20
2019,04,06,14,14,6.40
2019,04,06,14,15,6.40
2019,04,06,14,16,3.20
2019,04,06,14,17,4.80
2019,04,06,14,18,6.40
2019,04,06,14,19,9.60
2019,04,06,14,20,17.70
2019,04,06,14,21,16.10
2019,04,06,14,22,8.10
2019,04,06,14,23,12.90
2019,04,06,14,24,16.10
2019,04,06,14,25,16.10
2019,04,06,14,26,11.30
2019,04,06,14,27,11.30
2019,04,06,14,28,9.60
2019,04,06,14,29,11.30
2019,04,06,14,30,6.40
2019,04,06,14,31,4.80
2019,04,06,14,32,11.30
2019,04,06,14,33,8.10
2019,04,06,14,34,4.80
2019,04,06,14,35,9.60
2019,04,06,14,36,8.10
2019,04,06,14,37,4.80
2019,04,06,14,38,4.80
2019,04,06,14,39,3.20
2019,04,06,14,40,6.40
2019,04,06,14,41,6.40
2019,04,06,14,42,3.20
2019,04,06,14,43,8.10
2019,04,06,14,44,11.30
2019,04,06,14,45,14.50
2019,04,06,14,46,17.70
2019,04,06,14,47,14.50
2019,04,06,14,48,11.30
2019,04,06,14,49,11.30
2019,04,06,14,50,11.30
2019,04,06,14,51,12.90
2019,04,06,14,52,9.60
2019,04,06,14,53,12.90
2019,04,06,14,54,14.50
2019,04,06,14,55,19.30
2019,04,06,14,56,17.70
2019,04,06,14,57,16.10
2019,04,06,14,58,14.50
2019,04,06,14,59,8.10
2019,04,06,15,00,6.40
2019,04,06,15,01,3.20
2019,04,06,15,02,9.60
2019,04,06,15,03,11.30
2019,04,06,15,04,11.30
2019,04,06,15,05,8.10
2019,04,06,15,06,11.30
2019,04,06,15,07,9.60
2019,04,06,15,08,4.80
2019,04,06,15,09,6.40
2019,04,06,15,10,3.20
2019,04,06,15,11,4.80
2019,04,06,15,12,11.30
2019,04,06,15,13,8.10
2019,04,06,15,14,8.10
2019,04,06,15,15,8.10
2019,04,06,15,16,6.40
2019,04,06,15,17,8.10
2019,04,06,15,18,8.10
2019,04,06,15,19,4.80
2019,04,06,15,20,11.30
2019,04,06,15,21,9.60
2019,04,06,15,22,6.40
2019,04,06,15,23,11.30
2019,04,06,15,24,11.30
2019,04,06,15,25,8.10
2019,04,06,15,26,8.10
2019,04,06,15,27,8.10
2019,04,06,15,28,9.60
2019,04,06,15,29,11.30
2019,04,06,15,30,11.30
2019,04,06,15,31,19.30
2019,04,06,15,32,14.50
2019,04,06,15,33,17.70
2019,04,06,15,34,19.30
2019,04,06,15,35,14.50
2019,04,06,15,36,16.10
2019,04,06,15,37,14.50
2019,04,06,15,38,16.10
2019,04,06,15,39,11.30
2019,04,06,15,40,11.30
2019,04,06,15,41,11.30
2019,04,06,15,42,8.10
2019,04,06,15,43,9.60
2019,04,06,15,44,11.30
2019,04,06,15,45,8.10
2019,04,06,15,46,4.80
2019,04,06,15,47,6.40
2019,04,06,15,48,6.40
2019,04,06,15,49,11.30
2019,04,06,15,50,4.80
2019,04,06,15,51,4.80
2019,04,06,15,52,9.60
2019,04,06,15,53,8.10
2019,04,06,15,54,12.90
2019,04,06,15,55,6.40
2019,04,06,15,56,1.60
2019,04,06,15,57,6.40
2019,04,06,15,58,11.30
2019,04,06,15,59,8.10
2019,04,06,16,00,4.80
2019,04,06,16,01,4.80
2019,04,06,16,02,12.90
2019,04,06,16,03,11.30
2019,04,06,16,04,8.10
2019,04,06,16,05,6.40
2019,04,06,16,06,11.30
2019,04,06,16,07,4.80
2019,04,06,16,08,4.80
2019,04,06,16,09,3.20
2019,04,06,16,10,4.80
2019,04,06,16,11,4.80
2019,04,06,16,12,6.40
2019,04,06,16,13,4.80
2019,04,06,16,14,9.60
2019,04,06,16,15,8.10
2019,04,06,16,16,12.90
2019,04,06,16,17,12.90
2019,04,06,16,18,19.30
2019,04,06,16,19,14.50
2019,04,06,16,20,17.70
2019,04,06,16,21,19.30
2019,04,06,16,22,11.30
2019,04,06,16,23,14.50
2019,04,06,16,24,6.40
2019,04,06,16,25,12.90
2019,04,06,16,26,14.50
2019,04,06,16,27,8.10
2019,04,06,16,28,6.40
2019,04,06,16,29,6.40
2019,04,06,16,30,16.10
2019,04,06,16,31,11.30
2019,04,06,16,32,11.30
2019,04,06,16,33,9.60
2019,04,06,16,34,17.70
2019,04,06,16,35,8.10
2019,04,06,16,36,11.30
2019,04,06,16,37,12.90
2019,04,06,16,38,12.90
2019,04,06,16,39,12.90
2019,04,06,16,40,14.50
2019,04,06,16,41,19.30
2019,04,06,16,42,11.30
2019,04,06,16,43,14.50
2019,04,06,16,44,14.50
2019,04,06,16,45,19.30
2019,04,06,16,46,12.90
2019,04,06,16,47,9.60
2019,04,06,16,48,22.50
2019,04,06,16,49,16.10
2019,04,06,16,50,16.10
2019,04,06,16,51,29.00
2019,04,06,16,52,25.70
2019,04,06,16,53,25.70
2019,04,06,16,54,22.50
2019,04,06,16,55,20.90
2019,04,06,16,56,11.30
2019,04,06,16,57,11.30
2019,04,06,16,58,14.50
2019,04,06,16,59,16.10
2019,04,06,17,00,14.50
2019,04,06,17,01,3.20
2019,04,06,17,02,3.20
2019,04,06,17,03,14.50
2019,04,06,17,04,11.30
2019,04,06,17,05,16.10
2019,04,06,17,06,4.80
2019,04,06,17,07,3.20
2019,04,06,17,08,8.10
2019,04,06,17,09,12.90
2019,04,06,17,10,11.30
2019,04,06,17,11,6.40
2019,04,06,17,12,11.30
2019,04,06,17,13,8.10
2019,04,06,17,14,6.40
2019,04,06,17,15,12.90
2019,04,06,17,16,9.60
2019,04,06,17,17,4.80
2019,04,06,17,18,6.40
2019,04,06,17,19,3.20
2019,04,06,17,20,8.10
2019,04,06,17,21,6.40
2019,04,06,17,22,6.40
2019,04,06,17,23,6.40
2019,04,06,17,24,6.40
2019,04,06,17,25,4.80
2019,04,06,17,26,11.30
2019,04,06,17,27,12.90
2019,04,06,17,28,6.40
2019,04,06,17,29,4.80
2019,04,06,17,30,4.80
2019,04,06,17,31,8.10
2019,04,06,17,32,6.40
2019,04,06,17,33,4.80
2019,04,06,17,34,6.40
2019,04,06,17,35,9.60
2019,04,06,17,36,4.80
2019,04,06,17,37,11.30
2019,04,06,17,38,4.80
2019,04,06,17,39,6.40
2019,04,06,17,40,1.60
2019,04,06,17,41,4.80
2019,04,06,17,42,8.10
2019,04,06,17,43,8.10
2019,04,06,17,44,4.80
2019,04,06,17,45,9.60
2019,04,06,17,46,8.10
2019,04,06,17,47,6.40
2019,04,06,17,48,1.60
2019,04,06,17,49,9.60
2019,04,06,17,50,11.30
2019,04,06,17,51,6.40
2019,04,06,17,52,8.10
2019,04,06,17,53,6.40
2019,04,06,17,54,14.50
2019,04,06,17,55,6.40
2019,04,06,17,56,6.40
2019,04,06,17,57,16.10
2019,04,06,17,58,8.10
2019,04,06,17,59,20.90
2019,04,06,18,00,17.70
2019,04,06,18,01,14.50